Flag for Poland Weather past 2 weeks in Gliwice, Poland

Now
70 °F

Sunny.


Feels Like: 70 °F
Forecast: 40 / 70 °F
Wind: 5 mph from South

Location: Katowice Airport

Current Time: Apr 27, 2015 at 8:04:56 PM

Latest Report: Apr 27, 2015 at 7:30 PM


Visibility: 10 mi

Pressure: 29.62 "Hg

Humidity: 43%

Dew point: 46 °F

Location of GliwiceLocation

Historic Weather in Gliwice — Graph

°F

Gliwice temperature yesterday

Maximum temperature yesterday: 66 °F (at 11:30 AM)
Minimum temperature yesterday: 46 °F (at 11:30 PM)
Average temperature yesterday: 59 °F

Past Weeks' High & Low Weather Summary

 TemperatureHumidityPressure
High75 °F (Apr 27, 3:00 PM)100% (Apr 17, 6:00 AM)30.33 "Hg (Apr 17, 6:00 AM)
Low30 °F (Apr 21, 5:00 AM)25% (Apr 21, 4:30 PM)29.62 "Hg (Apr 27, 3:30 PM)
Average51 °F60%30.01 "Hg
* Reported Apr 12 7:00 PM — Apr 27 7:00 PM, Gliwice, Weather by CustomWeather, © 2015

Note: Actual official high and low records may vary slightly from our data, if they occured in-between our weather recording intervals... More about our weather records

Advertising

Gliwice weather history for previous 24 hours

 ConditionsComfort  
Time TempWeatherWind HumidityBarometerVisibility
7:00 PM
Mon, Apr 27
70 °FPassing clouds.6 mph40%29.62 "HgN/A
6:30 PM72 °FPassing clouds.9 mph41%29.62 "HgN/A
6:00 PM72 °FPassing clouds.13 mph41%29.62 "HgN/A
5:30 PM73 °FPassing clouds.12 mph36%29.62 "HgN/A
5:00 PM75 °FPassing clouds.8 mph34%29.62 "HgN/A
4:30 PM73 °FPassing clouds.6 mph36%29.62 "HgN/A
4:00 PM75 °FPassing clouds.9 mph31%29.62 "HgN/A
3:30 PM75 °FPassing clouds.7 mph34%29.62 "HgN/A
3:00 PM75 °FSunny.9 mph31%29.65 "Hg10 mi
2:30 PM73 °FPassing clouds.9 mph33%29.65 "HgN/A
2:00 PM73 °FPassing clouds.6 mph33%29.65 "HgN/A
1:30 PM72 °FPassing clouds.7 mph41%29.65 "HgN/A
1:00 PM73 °FPassing clouds.7 mph36%29.68 "HgN/A
12:30 PM72 °FPassing clouds.9 mph36%29.68 "HgN/A
12:00 PM72 °FPassing clouds.8 mph38%29.68 "HgN/A
11:30 AM70 °FSunny.8 mph43%29.68 "Hg10 mi
11:00 AM68 °FPassing clouds.8 mph49%29.71 "HgN/A
10:30 AM68 °FPassing clouds.7 mph53%29.71 "HgN/A
10:00 AM66 °FPassing clouds.9 mph60%29.71 "HgN/A
9:30 AM64 °FSunny.8 mph64%29.71 "Hg10 mi
9:00 AM61 °FSunny.7 mph72%29.71 "Hg10 mi
8:30 AM59 °FSunny.7 mph77%29.74 "Hg10 mi
8:00 AM55 °FSunny.8 mph88%29.74 "Hg10 mi
7:30 AM54 °FClear.6 mph88%29.74 "Hg5 mi
7:00 AM52 °FFog.6 mph100%29.74 "Hg3 mi
6:30 AM50 °FFog.6 mph100%29.74 "Hg2 mi
6:00 AM45 °FFog.5 mph100%29.74 "Hg1 mi
5:30 AM46 °FFog.5 mph100%29.74 "Hg1 mi
5:00 AM46 °FFog.3 mph93%29.74 "Hg1 mi
4:30 AM43 °FFog.5 mph100%29.74 "Hg1 mi
4:00 AM43 °FFog.3 mph100%29.77 "Hg1 mi
3:30 AM45 °FFog.2 mph100%29.77 "Hg1 mi
3:00 AM43 °FQuite cool.5 mph93%29.77 "Hg1 mi
2:30 AM43 °FQuite cool.3 mph100%29.77 "Hg1 mi
2:00 AM43 °FQuite cool.3 mph100%29.77 "Hg1 mi
1:30 AM43 °FQuite cool.5 mph100%29.77 "Hg1 mi
1:00 AM45 °FFog.3 mph93%29.77 "Hg0 mi
12:30 AM45 °FQuite cool.5 mph100%29.77 "Hg1 mi
12:00 AM46 °FCool.5 mph93%29.77 "Hg1 mi
11:30 PM
Sun, Apr 26
46 °FCool.2 mph100%29.80 "Hg1 mi
11:00 PM50 °FCool.2 mph100%29.80 "Hg1 mi
10:30 PM48 °FFog.1 mph100%29.80 "Hg0 mi
10:00 PM52 °FCool.1 mph94%29.80 "Hg1 mi
9:30 PM52 °FCool.2 mph94%29.80 "Hg1 mi
9:00 PM54 °FFog.2 mph100%29.77 "Hg5 mi
8:30 PM55 °FSunny.3 mph94%29.77 "Hg10 mi
8:00 PM55 °FSunny.2 mph88%29.77 "Hg10 mi
Weather by CustomWeather, © 2015

See weather overviewHow to use our weather pages